Regional Weather Roundup
Issued by NWS Mt. Holly, NJ

Home | Current Version | Previous Version | Text Only | Print | Product List | Glossary On
Versions: 1 2 3 4 5 6 7 8 9 10 11 12 13 14 15 16 17 18 19 20 21 22 23 24 25 26 27 28 29 30 31 32 33 34 35 36 37 38 39 40 41 42 43 44 45 46 47 48 49 50
000
ASUS41 KPHI 231012
RWRPHI

REGIONAL WEATHER ROUNDUP
NATIONAL WEATHER SERVICE MOUNT HOLLY NJ
600 AM EDT MON OCT 23 2017

NOTE:  "FAIR" INDICATES FEW OR NO CLOUDS BELOW 12,000 FEET WITH NO
SIGNIFICANT WEATHER AND/OR OBSTRUCTIONS TO VISIBILITY.

 * = STATION DOES NOT REPORT PRECIPITATION (E.G. RAIN, SNOW, ETC.)
        OR FOG.

NJZ015>026-231100-
SOUTHERN NEW JERSEY

CITY           SKY/WX    TMP DP  RH WIND       PRES   REMARKS
POMONA         CLEAR     63  63 100 SE5       30.29F
WILDWOOD*      CLOUDY    66  65  96 SE7       30.28F
MILLVILLE      PTCLDY    63  63 100 SE5       30.28F
WRIGHTSTOWN    FOG       51  51  99 CALM      30.27F VSB 5/8
MOUNT HOLLY      N/A    N/A N/A N/A MISG      30.29F
TRENTON        CLOUDY    60  59  96 E3        30.29F FOG

$$
NJZ001>014-231100-
NORTHERN NEW JERSEY

CITY           SKY/WX    TMP DP  RH WIND       PRES   REMARKS
SUSSEX         CLOUDY    52  51  97 CALM      30.32S
ANDOVER*         N/A     54  53  97 CALM      30.31F
MORRISTOWN     CLOUDY    55  54  94 CALM      30.31F
NEWARK         MOCLDY    64  62  93 E3        30.31F
TETERBORO      MOCLDY    59  54  83 CALM      30.31S
CALDWELL       CLOUDY    57  54  89 CALM      30.33S
SOMERVILLE     CLOUDY    55  53  93 CALM      30.29F
ALLAIRE*       MOCLDY    62  62 100 SE7       30.32S
TOMS RIVER*    FOG       48  48 100 CALM      30.30F VSB 1/2

$$
PAZ043-044-047-054-055-060>062-066>071-231100-
EASTERN PENNSYLVANIA

CITY           SKY/WX    TMP DP  RH WIND       PRES   REMARKS
PHILADELPHIA   CLOUDY    62  60  93 E5        30.29F
NORTH PHILA    CLOUDY    63  60  90 E3        30.30F FOG
BLUE BELL*     CLOUDY    57  57 100 CALM      30.30F VSB 3/4
DOYLESTOWN     CLOUDY    57  57 100 NE3       30.29F FOG
QUAKERTOWN*    CLOUDY    57  57 100 CALM      30.31S VSB 1/2
PERKASIE*      FOG       57  57 100 CALM      30.31S VSB 1/2
POTTSTOWN      FOG       57  57 100 NE5       30.30F VSB 3/4
LANCASTER      CLOUDY    57  57 100 CALM      30.28S FOG
COATESVILLE    FOG       61  61 100 CALM      30.30S VSB 1/4
READING        CLOUDY    54  54 100 CALM      30.28S
ALLENTOWN      CLOUDY    59  54  83 NE6       30.30F
MOUNT POCONO   CLOUDY    55  55 100 S9        30.30F
HAZLETON       CLOUDY    55  54  94 SE7       30.32S
LEHIGHTON      CLOUDY    50  48  93 CALM      30.31S
WILKES BARRE   MOCLDY    55  51  86 VRB5      30.28F

$$
DEZALL-MDZ008-012-015-019-020-231100-
DELAWARE AND EASTERN MARYLAND

CITY           SKY/WX    TMP DP  RH WIND       PRES   REMARKS
WILMINGTON     FOG       63  63 100 E5        30.28S VSB 1/2
DOVER          PTCLDY    64  64 100 SE7       30.26F
GEORGETOWN     PTCLDY    63  62  97 SE3       30.28S
EASTON         FOG       59  59 100 CALM      30.30S VSB 1/2
PATUXENT       PTCLDY    66  65  96 S3        30.25F
OCEAN CITY     MOCLDY    67  66  97 SE6       30.27F
WALLOPS ISLAND CLOUDY    67  66  97 SE5       30.27S
CAMBRIDGE      FOG       57  57 100 SE3       30.26S VSB 1/4
SALISBURY      FOG       61  61 100 CALM      30.27S VSB 1/4

$$
PAZ001-021-NYZ056-072-MDZ011-DCZ001-231100-
OTHER NEARBY LOCATIONS

CITY           SKY/WX    TMP DP  RH WIND       PRES   REMARKS
HARRISBURG     CLOUDY    58  58 100 E3        30.26F FOG
STATE COLLEGE  PTCLDY    57  50  77 CALM      30.22F
WILLIAMSPORT   CLOUDY    60  53  77 E7        30.23F
BINGHAMTON     PTCLDY    52  44  74 S7        30.24F
NEW YORK CITY  CLOUDY    64  61  90 CALM      30.34S
BALTIMORE      CLOUDY    61  61 100 NE5       30.26S FOG
WASHINGTON DC  FOG       60  60 100 NE5       30.25F VSB 1/2

$$



USA.gov is the U.S. government's official web portal to all federal, state and local government web resources and services.